Location: Écuvilly
(49.6505°N, 2.9206°E)
Time: 16:07:57
(UTC+00:00)

Cosmos 540 Rocket - Pass Details

Date: 17 November 2025
Orbit: 735 x 747 km, 74.1° (Epoch: 12 December)

Event Time Altitude Azimuth Distance (km) Brightness Sun altitude
Rises 17:21:39 0° 336° (NNW) 3,202 6.8 -12.6°
Reaches altitude 10° 17:24:02 10° 337° (NNW) 2,272 6.1 -13.0°
Maximum altitude 17:29:12 87° 66° (ENE) 752 3.4 -13.8°
Drops below altitude 10° 17:34:18 10° 157° (SSE) 2,248 5.8 -14.6°
Sets 17:36:38 0° 158° (SSE) 3,165 6.6 -15.0°
